Location: Guferjoch
(46.7462°N, 8.4506°E)
Time: 23:09:25
(UTC+00:00)

Meteor 1-28 Rocket - Pass Details

Date: 14 July 2020
Orbit: 505 x 522 km, 97.3° (Epoch: 14 August)

Event Time Altitude Azimuth Distance (km) Brightness Sun altitude
Exits shadow 02:31:18 - 176° (S) 1,997 5.8 -10.6°
Reaches altitude 10° 02:31:58 10° 178° (S) 1,718 5.4 -10.5°
Maximum altitude 02:35:38 62° 259° (W) 579 3.2 -10.1°
Drops below altitude 10° 02:39:21 10° 341° (NNW) 1,742 6.3 -9.7°
Sets 02:41:29 0° 345° (NNW) 2,636 7.3 -9.4°
